DLH4KC EDDF-EDDH

Flight info

Callsign DLH4KC
Flight time 0h 44m
Altitude 35000
Route MARUN8M/25C MARUN Y150 TOLGI DCT SAS/N0438F340 P605 NOLGO
Aircraft A320/M-SDE3FGHIRWY/LB1

Departure

Time 2026-05-06 10:12
Airport Frankfurt Main Airport (EDDF)

Arrival

Time 2026-05-06 10:57
Airport Hamburg Helmut Schmidt Airport (EDDH)
Time Latitude Longitude Altitude Speed Heading
2026-05-06 09:51 50.04542 8.56226 371 ft 0 kts 40°
2026-05-06 10:00 50.04539 8.56221 365 ft 2 kts 40°
2026-05-06 10:01 50.04527 8.56204 367 ft 2 kts 13°
2026-05-06 10:01 50.04511 8.56205 364 ft 2 kts 340°
2026-05-06 10:01 50.04496 8.56214 368 ft 2 kts 340°
2026-05-06 10:01 50.04481 8.56225 367 ft 2 kts 284°
2026-05-06 10:02 50.04478 8.56226 366 ft 2 kts 252°
2026-05-06 10:02 50.04473 8.56208 365 ft 0 kts 250°
2026-05-06 10:04 50.04473 8.56207 365 ft 0 kts 251°
2026-05-06 10:04 50.04469 8.56189 365 ft 5 kts 249°
2026-05-06 10:05 50.04459 8.56145 365 ft 7 kts 251°
2026-05-06 10:05 50.04433 8.56053 367 ft 11 kts 233°
2026-05-06 10:05 50.04359 8.56047 366 ft 12 kts 160°
2026-05-06 10:05 50.04290 8.56123 365 ft 13 kts 97°
2026-05-06 10:06 50.04257 8.56230 364 ft 11 kts 153°
2026-05-06 10:06 50.04175 8.56277 366 ft 14 kts 159°
2026-05-06 10:06 50.04156 8.56402 368 ft 13 kts 68°
2026-05-06 10:06 50.04186 8.56526 367 ft 11 kts 70°
2026-05-06 10:07 50.04212 8.56636 369 ft 10 kts 69°
2026-05-06 10:07 50.04236 8.56735 367 ft 9 kts 69°
2026-05-06 10:07 50.04257 8.56823 369 ft 10 kts 69°
2026-05-06 10:07 50.04291 8.56964 366 ft 17 kts 70°
2026-05-06 10:08 50.04331 8.57133 368 ft 16 kts 70°
2026-05-06 10:08 50.04369 8.57292 365 ft 15 kts 70°
2026-05-06 10:08 50.04404 8.57438 367 ft 14 kts 69°
2026-05-06 10:08 50.04436 8.57573 367 ft 13 kts 70°
2026-05-06 10:09 50.04465 8.57695 368 ft 12 kts 70°
2026-05-06 10:09 50.04492 8.57807 368 ft 11 kts 69°
2026-05-06 10:09 50.04517 8.57910 368 ft 10 kts 70°
2026-05-06 10:09 50.04538 8.58003 367 ft 9 kts 70°
2026-05-06 10:10 50.04558 8.58085 370 ft 8 kts 69°
2026-05-06 10:10 50.04576 8.58159 369 ft 8 kts 70°
2026-05-06 10:10 50.04612 8.58312 371 ft 18 kts 69°
2026-05-06 10:10 50.04650 8.58471 368 ft 11 kts 73°
2026-05-06 10:11 50.04627 8.58567 366 ft 9 kts 146°
2026-05-06 10:11 50.04574 8.58597 368 ft 7 kts 162°
2026-05-06 10:11 50.04534 8.58616 370 ft 5 kts 166°
2026-05-06 10:11 50.04482 8.58569 370 ft 13 kts 242°
2026-05-06 10:12 50.04415 8.58295 369 ft 57 kts 249°
2026-05-06 10:12 50.04194 8.57370 369 ft 123 kts 250°
2026-05-06 10:12 50.03841 8.55871 501 ft 161 kts 248°
2026-05-06 10:12 50.03444 8.54229 1236 ft 162 kts 248°
2026-05-06 10:13 50.03064 8.52704 1867 ft 172 kts 247°
2026-05-06 10:13 50.02572 8.50853 2319 ft 192 kts 239°
2026-05-06 10:13 50.01565 8.49487 2976 ft 200 kts 201°
2026-05-06 10:13 50.00179 8.49176 3700 ft 203 kts 189°
2026-05-06 10:14 49.98795 8.48708 4407 ft 204 kts 198°
2026-05-06 10:14 49.97445 8.48043 5112 ft 205 kts 200°
2026-05-06 10:14 49.96084 8.47346 5792 ft 207 kts 200°
2026-05-06 10:14 49.94680 8.46627 6276 ft 221 kts 200°
2026-05-06 10:15 49.93143 8.45848 6782 ft 242 kts 199°
2026-05-06 10:15 49.91572 8.44855 7743 ft 246 kts 216°
2026-05-06 10:15 49.90445 8.42867 8701 ft 250 kts 244°
2026-05-06 10:15 49.90116 8.40221 9671 ft 258 kts 273°
2026-05-06 10:16 49.90756 8.37600 10473 ft 269 kts 306°
2026-05-06 10:16 49.92272 8.35846 11217 ft 284 kts 334°
2026-05-06 10:16 49.94034 8.34732 11513 ft 307 kts 336°
2026-05-06 10:16 49.96117 8.33405 11810 ft 331 kts 335°
2026-05-06 10:17 49.98307 8.31974 12182 ft 351 kts 335°
2026-05-06 10:17 50.00558 8.30495 12849 ft 359 kts 336°
2026-05-06 10:17 50.02969 8.29362 13599 ft 367 kts 348°
2026-05-06 10:17 50.05532 8.29019 14282 ft 374 kts
2026-05-06 10:18 50.08129 8.29546 14985 ft 379 kts 13°
2026-05-06 10:18 50.10653 8.30805 15667 ft 383 kts 19°
2026-05-06 10:18 50.13183 8.32159 16369 ft 387 kts 19°
2026-05-06 10:18 50.15749 8.33517 17060 ft 391 kts 18°
2026-05-06 10:19 50.18337 8.34874 17722 ft 395 kts 18°
2026-05-06 10:19 50.20961 8.36242 18332 ft 399 kts 18°
2026-05-06 10:19 50.23608 8.37625 18902 ft 403 kts 18°
2026-05-06 10:19 50.26273 8.39024 19463 ft 407 kts 18°
2026-05-06 10:20 50.28975 8.40446 20025 ft 411 kts 18°
2026-05-06 10:20 50.31695 8.41888 20561 ft 415 kts 18°
2026-05-06 10:20 50.34428 8.43364 21105 ft 418 kts 18°
2026-05-06 10:20 50.37194 8.44878 21642 ft 422 kts 18°
2026-05-06 10:21 50.39972 8.46410 22194 ft 426 kts 18°
2026-05-06 10:21 50.42779 8.47962 22749 ft 430 kts 18°
2026-05-06 10:21 50.45619 8.49528 23274 ft 434 kts 18°
2026-05-06 10:21 50.48477 8.51084 23700 ft 437 kts 17°
2026-05-06 10:22 50.51375 8.52549 24116 ft 440 kts 16°
2026-05-06 10:22 50.54291 8.53934 24526 ft 443 kts 15°
2026-05-06 10:22 50.57298 8.55316 24960 ft 446 kts 14°
2026-05-06 10:22 50.60244 8.56671 25366 ft 449 kts 14°
2026-05-06 10:23 50.63252 8.58073 25770 ft 452 kts 15°
2026-05-06 10:23 50.66277 8.59507 26174 ft 455 kts 15°
2026-05-06 10:23 50.69311 8.60967 26573 ft 457 kts 15°
2026-05-06 10:23 50.72364 8.62448 26967 ft 460 kts 15°
2026-05-06 10:24 50.75429 8.63941 27375 ft 463 kts 15°
2026-05-06 10:24 50.78453 8.65761 27772 ft 467 kts 24°
2026-05-06 10:24 50.81276 8.68311 28158 ft 471 kts 34°
2026-05-06 10:24 50.83846 8.71562 28528 ft 474 kts 43°
2026-05-06 10:25 50.86082 8.75415 28870 ft 476 kts 53°
2026-05-06 10:25 50.88097 8.79603 29219 ft 479 kts 53°
2026-05-06 10:25 50.90110 8.83811 29561 ft 481 kts 53°
2026-05-06 10:25 50.92136 8.88061 29883 ft 484 kts 53°
2026-05-06 10:26 50.94170 8.92333 30166 ft 487 kts 53°
2026-05-06 10:26 50.96217 8.96630 30463 ft 489 kts 53°
2026-05-06 10:26 50.98275 9.00950 30749 ft 491 kts 53°
2026-05-06 10:26 51.00330 9.05269 31135 ft 490 kts 53°
2026-05-06 10:27 51.02383 9.09591 31548 ft 489 kts 53°
2026-05-06 10:27 51.04429 9.13911 31942 ft 488 kts 53°
2026-05-06 10:27 51.06471 9.18220 32339 ft 488 kts 52°
2026-05-06 10:27 51.08743 9.22221 32718 ft 488 kts 43°
2026-05-06 10:28 51.11332 9.25558 33080 ft 487 kts 33°
2026-05-06 10:28 51.13248 9.27437 33326 ft 486 kts 27°
2026-05-06 10:28 51.17350 9.30193 33829 ft 482 kts 14°
2026-05-06 10:28 51.20609 9.31435 34154 ft 480 kts
2026-05-06 10:29 51.23880 9.32551 34484 ft 480 kts
2026-05-06 10:29 51.26081 9.33309 34661 ft 480 kts
2026-05-06 10:29 51.32587 9.35577 34755 ft 477 kts 10°
2026-05-06 10:30 51.39011 9.37822 34757 ft 475 kts
2026-05-06 10:30 51.45472 9.40081 34759 ft 475 kts
2026-05-06 10:31 51.51934 9.42349 34757 ft 475 kts
2026-05-06 10:31 51.58381 9.44623 34759 ft 474 kts
2026-05-06 10:32 51.64827 9.46892 34764 ft 474 kts
2026-05-06 10:32 51.71269 9.49155 34775 ft 473 kts
2026-05-06 10:33 51.77703 9.51430 34784 ft 473 kts
2026-05-06 10:33 51.84041 9.54305 34792 ft 476 kts 21°
2026-05-06 10:34 51.89977 9.59112 34791 ft 477 kts 25°
2026-05-06 10:34 51.95880 9.64001 34796 ft 477 kts 25°
2026-05-06 10:35 52.01796 9.68913 34464 ft 477 kts 25°
2026-05-06 10:35 52.04744 9.71366 34227 ft 476 kts 25°
2026-05-06 10:35 52.07691 9.73822 33993 ft 476 kts 25°
2026-05-06 10:36 52.10604 9.76256 33747 ft 476 kts 25°
2026-05-06 10:36 52.13542 9.78719 33483 ft 476 kts 25°
2026-05-06 10:36 52.16525 9.81039 32772 ft 476 kts 18°
2026-05-06 10:36 52.19767 9.82259 31431 ft 481 kts
2026-05-06 10:37 52.23080 9.81992 30143 ft 473 kts 347°
2026-05-06 10:37 52.26276 9.80871 28763 ft 467 kts 345°
2026-05-06 10:37 52.29458 9.79754 27897 ft 466 kts 346°
2026-05-06 10:37 52.32615 9.78669 27256 ft 460 kts 346°
2026-05-06 10:38 52.35730 9.77614 26593 ft 455 kts 346°
2026-05-06 10:38 52.38816 9.76572 25929 ft 451 kts 346°
2026-05-06 10:38 52.41871 9.75537 25288 ft 447 kts 346°
2026-05-06 10:38 52.44900 9.74501 24652 ft 443 kts 345°
2026-05-06 10:39 52.47901 9.73474 24029 ft 437 kts 345°
2026-05-06 10:39 52.50852 9.72465 23425 ft 432 kts 345°
2026-05-06 10:39 52.53784 9.71457 22798 ft 426 kts 345°
2026-05-06 10:39 52.56660 9.70463 22251 ft 419 kts 346°
2026-05-06 10:40 52.59489 9.69487 21743 ft 411 kts 346°
2026-05-06 10:40 52.62271 9.68525 21230 ft 405 kts 346°
2026-05-06 10:40 52.65010 9.67575 20745 ft 399 kts 346°
2026-05-06 10:40 52.67705 9.66639 20243 ft 394 kts 346°
2026-05-06 10:41 52.70367 9.65713 19742 ft 389 kts 346°
2026-05-06 10:41 52.72998 9.64799 19235 ft 385 kts 346°
2026-05-06 10:41 52.75619 9.63887 18736 ft 382 kts 346°
2026-05-06 10:41 52.78215 9.62985 18226 ft 380 kts 346°
2026-05-06 10:42 52.80795 9.62088 17654 ft 378 kts 346°
2026-05-06 10:42 52.83363 9.61193 17131 ft 375 kts 346°
2026-05-06 10:42 52.85902 9.60306 16628 ft 372 kts 346°
2026-05-06 10:42 52.88432 9.59422 16189 ft 368 kts 346°
2026-05-06 10:43 52.90922 9.58550 15742 ft 365 kts 346°
2026-05-06 10:43 52.93400 9.57679 15235 ft 364 kts 346°
2026-05-06 10:43 52.95875 9.56808 14735 ft 362 kts 346°
2026-05-06 10:44 53.00748 9.55090 13822 ft 355 kts 347°
2026-05-06 10:44 53.03107 9.54260 13695 ft 329 kts 346°
2026-05-06 10:44 53.05281 9.53496 13365 ft 313 kts 346°
2026-05-06 10:44 53.07360 9.52764 12789 ft 307 kts 346°
2026-05-06 10:45 53.09460 9.52021 12149 ft 303 kts 346°
2026-05-06 10:45 53.11511 9.51297 11531 ft 299 kts 346°
2026-05-06 10:45 53.13517 9.50589 10950 ft 297 kts 346°
2026-05-06 10:45 53.15552 9.49867 10519 ft 300 kts 346°
2026-05-06 10:46 53.17567 9.49148 10435 ft 295 kts 346°
2026-05-06 10:46 53.19577 9.48430 10254 ft 294 kts 346°
2026-05-06 10:46 53.21572 9.47716 10005 ft 293 kts 346°
2026-05-06 10:46 53.23562 9.47005 9753 ft 291 kts 346°
2026-05-06 10:47 53.25542 9.46300 9501 ft 290 kts 346°
2026-05-06 10:47 53.27519 9.45600 9001 ft 294 kts 346°
2026-05-06 10:47 53.29533 9.44885 8615 ft 292 kts 346°
2026-05-06 10:47 53.31492 9.44195 8403 ft 283 kts 346°
2026-05-06 10:48 53.33375 9.43552 8273 ft 271 kts 349°
2026-05-06 10:48 53.35217 9.43711 8081 ft 265 kts 16°
2026-05-06 10:48 53.36921 9.44860 7750 ft 264 kts 23°
2026-05-06 10:48 53.38458 9.46492 7417 ft 262 kts 44°
2026-05-06 10:49 53.39414 9.49035 7083 ft 260 kts 75°
2026-05-06 10:49 53.39819 9.51979 6711 ft 259 kts 70°
2026-05-06 10:49 53.40788 9.54473 6448 ft 256 kts 48°
2026-05-06 10:49 53.41978 9.56665 6155 ft 258 kts 47°
2026-05-06 10:50 53.42818 9.58268 5903 ft 259 kts 49°
2026-05-06 10:50 53.43905 9.60402 5580 ft 251 kts 49°
2026-05-06 10:50 53.44993 9.62594 5249 ft 245 kts 49°
2026-05-06 10:50 53.46074 9.64756 4930 ft 239 kts 49°
2026-05-06 10:51 53.47130 9.66863 4608 ft 230 kts 49°
2026-05-06 10:51 53.48112 9.68825 4306 ft 210 kts 49°
2026-05-06 10:51 53.49013 9.70624 4048 ft 192 kts 50°
2026-05-06 10:51 53.49838 9.72274 3794 ft 180 kts 50°
2026-05-06 10:52 53.50634 9.73866 3543 ft 176 kts 50°
2026-05-06 10:52 53.51416 9.75432 3308 ft 174 kts 50°
2026-05-06 10:52 53.52188 9.76980 3079 ft 172 kts 50°
2026-05-06 10:52 53.52951 9.78509 2839 ft 170 kts 51°
2026-05-06 10:53 53.53704 9.80020 2611 ft 168 kts 50°
2026-05-06 10:53 53.54450 9.81518 2376 ft 166 kts 51°
2026-05-06 10:53 53.55190 9.83005 2158 ft 166 kts 50°
2026-05-06 10:53 53.55908 9.84447 1919 ft 155 kts 51°
2026-05-06 10:54 53.56574 9.85786 1728 ft 143 kts 50°
2026-05-06 10:54 53.57183 9.87011 1543 ft 132 kts 50°
2026-05-06 10:54 53.57764 9.88181 1356 ft 128 kts 50°
2026-05-06 10:54 53.58333 9.89333 1170 ft 128 kts 50°
2026-05-06 10:55 53.58888 9.90474 992 ft 126 kts 49°
2026-05-06 10:55 53.59455 9.91612 800 ft 125 kts 49°
2026-05-06 10:55 53.60019 9.92745 646 ft 127 kts 51°
2026-05-06 10:55 53.60582 9.93874 502 ft 127 kts 50°
2026-05-06 10:56 53.61144 9.95004 350 ft 129 kts 50°
2026-05-06 10:56 53.61719 9.96158 171 ft 128 kts 50°
2026-05-06 10:56 53.62283 9.97296 49 ft 120 kts 50°
2026-05-06 10:56 53.62725 9.98191 51 ft 74 kts 50°
2026-05-06 10:57 53.62913 9.98572 49 ft 35 kts 51°
2026-05-06 10:57 53.63046 9.98851 49 ft 16 kts 51°
2026-05-06 10:57 53.63122 9.98998 51 ft 20 kts 47°
2026-05-06 10:57 53.63236 9.99228 53 ft 31 kts 51°
2026-05-06 10:58 53.63290 9.99475 50 ft 22 kts 92°
2026-05-06 10:58 53.63280 9.99618 50 ft 8 kts 98°
2026-05-06 10:58 53.63273 9.99703 50 ft 6 kts 94°
2026-05-06 10:58 53.63283 9.99766 50 ft 5 kts 63°
2026-05-06 10:59 53.63302 9.99812 50 ft 7 kts 51°
2026-05-06 10:59 53.63350 9.99907 50 ft 13 kts 49°
2026-05-06 10:59 53.63414 10.00034 51 ft 11 kts 50°
2026-05-06 10:59 53.63447 10.00165 51 ft 13 kts 95°
2026-05-06 11:00 53.63376 10.00229 51 ft 11 kts 176°
2026-05-06 11:00 53.63305 10.00238 51 ft 10 kts 173°
2026-05-06 11:00 53.63293 10.00303 51 ft 5 kts 88°
2026-05-06 11:00 53.63294 10.00348 51 ft 3 kts 87°
2026-05-06 11:01 53.63294 10.00357 51 ft 0 kts 87°